Time,TemperatureF,DewpointF,PressureIn,WindDirection,WindDirectionDegrees,WindSpeedMPH,WindSpeedGustMPH,Humidity,HourlyPrecipIn,Conditions,Clouds,dailyrainin,SoftwareType,DateUTC
2013-07-19 00:00:00,81.0,-99.9,-100.00,SSE,159,5.0,10.0,-999,-99.99,,,-99.99,,2013-07-19 05:00:00,
2013-07-19 00:32:00,81.0,-99.9,-100.00,SSE,159,5.0,10.0,-999,-99.99,,,-99.99,,2013-07-19 05:32:00,
2013-07-19 00:43:00,81.0,-99.9,-100.00,SSE,159,5.0,10.0,-999,-99.99,,,-99.99,,2013-07-19 05:43:00,
2013-07-19 00:53:00,81.0,-99.9,-100.00,SSE,159,5.0,10.0,-999,-99.99,,,-99.99,,2013-07-19 05:53:00,
2013-07-19 01:00:00,80.0,-99.9,-100.00,SSW,207,4.0,9.0,-999,-99.99,,,-99.99,,2013-07-19 06:00:00,
2013-07-19 01:44:00,80.0,-99.9,-100.00,SSW,207,4.0,9.0,-999,-99.99,,,-99.99,,2013-07-19 06:44:00,
2013-07-19 01:53:00,80.0,-99.9,-100.00,SSW,207,4.0,9.0,-999,-99.99,,,-99.99,,2013-07-19 06:53:00,
2013-07-19 02:00:00,79.0,-99.9,-100.00,SSE,154,6.0,8.0,-999,-99.99,,,-99.99,,2013-07-19 07:00:00,
2013-07-19 02:43:00,79.0,-99.9,-100.00,SSE,154,6.0,8.0,-999,-99.99,,,-99.99,,2013-07-19 07:43:00,
2013-07-19 02:53:00,79.0,-99.9,-100.00,SSE,154,6.0,8.0,-999,-99.99,,,-99.99,,2013-07-19 07:53:00,
2013-07-19 03:00:00,78.0,-99.9,-100.00,SE,124,2.0,7.0,-999,-99.99,,,-99.99,,2013-07-19 08:00:00,
2013-07-19 03:43:00,78.0,-99.9,-100.00,SE,124,2.0,7.0,-999,-99.99,,,-99.99,,2013-07-19 08:43:00,
2013-07-19 03:52:00,78.0,-99.9,-100.00,SE,124,2.0,7.0,-999,-99.99,,,-99.99,,2013-07-19 08:52:00,
2013-07-19 04:00:00,77.0,-99.9,-100.00,South,169,1.0,6.0,-999,-99.99,,,-99.99,,2013-07-19 09:00:00,
2013-07-19 04:43:00,77.0,-99.9,-100.00,South,169,1.0,6.0,-999,-99.99,,,-99.99,,2013-07-19 09:43:00,
2013-07-19 04:52:00,77.0,-99.9,-100.00,South,169,1.0,6.0,-999,-99.99,,,-99.99,,2013-07-19 09:52:00,
2013-07-19 05:00:00,76.0,-99.9,-100.00,SSE,149,3.0,8.0,-999,-99.99,,,-99.99,,2013-07-19 10:00:00,
2013-07-19 05:33:00,76.0,-99.9,-100.00,SSE,149,3.0,8.0,-999,-99.99,,,-99.99,,2013-07-19 10:33:00,
2013-07-19 05:43:00,76.0,-99.9,-100.00,SSE,149,3.0,8.0,-999,-99.99,,,-99.99,,2013-07-19 10:43:00,
2013-07-19 05:52:00,76.0,-99.9,-100.00,SSE,149,3.0,8.0,-999,-99.99,,,-99.99,,2013-07-19 10:52:00,
2013-07-19 06:00:00,77.0,-99.9,-100.00,SSW,196,3.0,8.0,-999,-99.99,,,-99.99,,2013-07-19 11:00:00,
2013-07-19 06:52:00,77.0,-99.9,-100.00,SSW,196,3.0,8.0,-999,-99.99,,,-99.99,,2013-07-19 11:52:00,
2013-07-19 07:00:00,80.0,-99.9,-100.00,South,184,7.0,11.0,-999,-99.99,,,-99.99,,2013-07-19 12:00:00,
2013-07-19 07:44:00,80.0,-99.9,-100.00,South,184,7.0,11.0,-999,-99.99,,,-99.99,,2013-07-19 12:44:00,
2013-07-19 07:53:00,80.0,-99.9,-100.00,South,184,7.0,11.0,-999,-99.99,,,-99.99,,2013-07-19 12:53:00,
2013-07-19 08:00:00,79.0,-99.9,-100.00,South,176,12.0,12.0,-999,-99.99,,,-99.99,,2013-07-19 13:00:00,
2013-07-19 08:43:00,79.0,-99.9,-100.00,South,176,12.0,12.0,-999,-99.99,,,-99.99,,2013-07-19 13:43:00,
2013-07-19 08:53:00,79.0,-99.9,-100.00,South,176,12.0,12.0,-999,-99.99,,,-99.99,,2013-07-19 13:53:00,
2013-07-19 09:00:00,82.0,-99.9,-100.00,SSW,209,5.0,9.0,-999,-99.99,,,-99.99,,2013-07-19 14:00:00,
2013-07-19 09:33:00,82.0,-99.9,-100.00,SSW,209,5.0,9.0,-999,-99.99,,,-99.99,,2013-07-19 14:33:00,
2013-07-19 09:43:00,82.0,-99.9,-100.00,SSW,209,5.0,9.0,-999,-99.99,,,-99.99,,2013-07-19 14:43:00,
2013-07-19 09:53:00,82.0,-99.9,-100.00,SSW,209,5.0,9.0,-999,-99.99,,,-99.99,,2013-07-19 14:53:00,
2013-07-19 10:00:00,84.0,-99.9,-100.00,South,185,8.0,11.0,-999,-99.99,,,-99.99,,2013-07-19 15:00:00,
2013-07-19 10:52:00,84.0,-99.9,-100.00,South,185,8.0,11.0,-999,-99.99,,,-99.99,,2013-07-19 15:52:00,
2013-07-19 11:00:00,90.0,-99.9,-100.00,SW,224,6.0,12.0,-999,-99.99,,,-99.99,,2013-07-19 16:00:00,
2013-07-19 11:32:00,90.0,-99.9,-100.00,SW,224,6.0,12.0,-999,-99.99,,,-99.99,,2013-07-19 16:32:00,
2013-07-19 11:43:00,90.0,-99.9,-100.00,SW,224,6.0,12.0,-999,-99.99,,,-99.99,,2013-07-19 16:43:00,
2013-07-19 11:53:00,90.0,-99.9,-100.00,SW,224,6.0,12.0,-999,-99.99,,,-99.99,,2013-07-19 16:53:00,
2013-07-19 13:00:00,94.0,-99.9,-100.00,WSW,256,2.0,10.0,-999,-99.99,,,-99.99,,2013-07-19 18:00:00,
2013-07-19 13:32:00,94.0,-99.9,-100.00,WSW,256,2.0,10.0,-999,-99.99,,,-99.99,,2013-07-19 18:32:00,
2013-07-19 13:43:00,94.0,-99.9,-100.00,WSW,256,2.0,10.0,-999,-99.99,,,-99.99,,2013-07-19 18:43:00,
2013-07-19 13:52:00,94.0,-99.9,-100.00,WSW,256,2.0,10.0,-999,-99.99,,,-99.99,,2013-07-19 18:52:00,
2013-07-19 14:00:00,94.0,-99.9,-100.00,SW,223,4.0,6.0,-999,-99.99,,,-99.99,,2013-07-19 19:00:00,
2013-07-19 14:52:00,94.0,-99.9,-100.00,SW,223,4.0,6.0,-999,-99.99,,,-99.99,,2013-07-19 19:52:00,
2013-07-19 15:00:00,98.0,-99.9,-100.00,SSW,205,6.0,7.0,-999,-99.99,,,-99.99,,2013-07-19 20:00:00,
2013-07-19 15:43:00,98.0,-99.9,-100.00,SSW,205,6.0,7.0,-999,-99.99,,,-99.99,,2013-07-19 20:43:00,
2013-07-19 15:52:00,98.0,-99.9,-100.00,SSW,205,6.0,7.0,-999,-99.99,,,-99.99,,2013-07-19 20:52:00,
2013-07-19 16:00:00,97.0,-99.9,-100.00,South,189,3.0,12.0,-999,-99.99,,,-99.99,,2013-07-19 21:00:00,
2013-07-19 16:43:00,97.0,-99.9,-100.00,South,189,3.0,12.0,-999,-99.99,,,-99.99,,2013-07-19 21:43:00,
2013-07-19 16:52:00,97.0,-99.9,-100.00,South,189,3.0,12.0,-999,-99.99,,,-99.99,,2013-07-19 21:52:00,
2013-07-19 17:00:00,97.0,-99.9,-100.00,NW,323,4.0,13.0,-999,-99.99,,,-99.99,,2013-07-19 22:00:00,
2013-07-19 17:52:00,97.0,-99.9,-100.00,NW,323,4.0,13.0,-999,-99.99,,,-99.99,,2013-07-19 22:52:00,
2013-07-19 18:00:00,93.0,-99.9,-100.00,WNW,292,12.0,14.0,-999,-99.99,,,-99.99,,2013-07-19 23:00:00,
2013-07-19 18:52:00,93.0,-99.9,-100.00,WNW,292,12.0,14.0,-999,-99.99,,,-99.99,,2013-07-19 23:52:00,
2013-07-19 19:00:00,89.0,-99.9,-100.00,NW,306,8.0,10.0,-999,-99.99,,,-99.99,,2013-07-20 00:00:00,
2013-07-19 19:43:00,89.0,-99.9,-100.00,NW,306,8.0,10.0,-999,-99.99,,,-99.99,,2013-07-20 00:43:00,
2013-07-19 19:52:00,89.0,-99.9,-100.00,NW,306,8.0,10.0,-999,-99.99,,,-99.99,,2013-07-20 00:52:00,
2013-07-19 20:00:00,87.0,-99.9,-100.00,WNW,287,6.0,6.0,-999,-99.99,,,-99.99,,2013-07-20 01:00:00,
2013-07-19 20:32:00,87.0,-99.9,-100.00,WNW,287,6.0,6.0,-999,-99.99,,,-99.99,,2013-07-20 01:32:00,
2013-07-19 20:52:00,87.0,-99.9,-100.00,WNW,287,6.0,6.0,-999,-99.99,,,-99.99,,2013-07-20 01:52:00,
2013-07-19 21:00:00,80.0,-99.9,-100.00,WNW,287,5.0,9.0,-999,-99.99,,,-99.99,,2013-07-20 02:00:00,
2013-07-19 21:52:00,80.0,-99.9,-100.00,WNW,287,5.0,9.0,-999,-99.99,,,-99.99,,2013-07-20 02:52:00,
2013-07-19 22:00:00,76.0,-99.9,-100.00,West,275,0.0,4.0,-999,-99.99,,,-99.99,,2013-07-20 03:00:00,
2013-07-19 22:53:00,76.0,-99.9,-100.00,West,275,0.0,4.0,-999,-99.99,,,-99.99,,2013-07-20 03:53:00,
2013-07-19 23:00:00,74.0,-99.9,-100.00,WNW,297,0.0,3.0,-999,-99.99,,,-99.99,,2013-07-20 04:00:00,
2013-07-19 23:33:00,74.0,-99.9,-100.00,WNW,297,0.0,3.0,-999,-99.99,,,-99.99,,2013-07-20 04:33:00,
2013-07-19 23:44:00,74.0,-99.9,-100.00,WNW,297,0.0,3.0,-999,-99.99,,,-99.99,,2013-07-20 04:44:00,
2013-07-19 23:52:00,74.0,-99.9,-100.00,WNW,297,0.0,3.0,-999,-99.99,,,-99.99,,2013-07-20 04:52:00,